Flag for Netherlands Weather past 2 weeks in Leiden, Netherlands

Now
61 °F

Cool.


Feels Like: 61 °F
Forecast: 61 / 71 °F
Wind: 5 mph from West

Location: Rotterdam Zestienhoven Airport

Current Time: Jul 30, 2014 at 10:23:55 PM

Latest Report: Jul 30, 2014 at 9:55 PM


Visibility: N/A

Pressure: 29.98 "Hg

Humidity: 83%

Dew point: 55 °F

Location of LeidenLocation

Historic Weather in Leiden — Graph

°F

Leiden temperature yesterday

Maximum temperature yesterday: 75 °F (at 10:55 AM)
Minimum temperature yesterday: 63 °F (at 11:55 PM)
Average temperature yesterday: 69 °F

Past Weeks' High & Low Weather Summary

 TemperatureHumidityPressure
High95 °F (Jul 19, 3:25 PM)100% (Jul 16, 1:55 AM)30.18 "Hg (Jul 16, 1:55 AM)
Low55 °F (Jul 16, 2:55 AM)26% (Jul 19, 3:25 PM)29.74 "Hg (Jul 19, 11:25 PM)
Average70 °F76%29.97 "Hg
* Reported Jul 15 8:25 PM — Jul 30 8:55 PM, Leiden, Weather by CustomWeather, © 2014

Note: Actual official high and low records may vary slightly from our data, if they occured in-between our weather recording intervals... More about our weather records

Advertising

Leiden weather history for previous 24 hours

 ConditionsComfort  
Time TempWeatherWind HumidityBarometerVisibility
8:55 PM
Jul 30
63 °FMild.7 mph77%29.98 "HgN/A
8:25 PM64 °FClear.8 mph68%29.98 "HgN/A
7:55 PM66 °FClear.8 mph64%29.98 "HgN/A
7:25 PM68 °FMild.10 mph60%29.95 "HgN/A
6:55 PM68 °FMild.10 mph60%29.95 "HgN/A
6:25 PM68 °FClear.10 mph64%29.95 "HgN/A
5:55 PM68 °FPassing clouds.9 mph64%29.95 "HgN/A
5:25 PM68 °FMild.10 mph64%29.95 "HgN/A
4:55 PM70 °FPassing clouds.14 mph64%29.95 "HgN/A
4:25 PM70 °FScattered clouds.10 mph69%29.95 "HgN/A
3:55 PM70 °FCloudy.12 mph69%29.95 "HgN/A
3:25 PM72 °FBroken clouds.13 mph65%29.95 "HgN/A
2:55 PM72 °FBroken clouds.10 mph65%29.95 "HgN/A
2:25 PM72 °FBroken clouds.10 mph65%29.95 "HgN/A
1:55 PM72 °FBroken clouds.14 mph69%29.95 "HgN/A
1:25 PM72 °FBroken clouds.13 mph69%29.95 "HgN/A
12:55 PM72 °FPassing clouds.12 mph69%29.92 "HgN/A
12:25 PM72 °FPassing clouds.8 mph69%29.92 "HgN/A
11:55 AM68 °FOvercast.9 mph73%29.92 "HgN/A
11:25 AM68 °FPassing clouds.9 mph78%29.92 "HgN/A
10:55 AM68 °FScattered clouds.8 mph78%29.92 "HgN/A
10:25 AM68 °FPassing clouds.6 mph78%29.92 "HgN/A
9:55 AM68 °FClear.7 mph73%29.92 "HgN/A
9:25 AM68 °FClear.6 mph64%29.92 "HgN/A
8:55 AM68 °FClear.3 mph64%29.92 "HgN/A
8:25 AM66 °FMild.6 mph83%29.92 "HgN/A
7:55 AM64 °FClear.5 mph88%29.89 "HgN/A
7:25 AM61 °FCool.6 mph94%29.89 "HgN/A
6:55 AM59 °FCool.6 mph94%29.89 "HgN/A
6:25 AM57 °FCool.3 mph100%29.89 "HgN/A
5:55 AM59 °FCool.5 mph94%29.89 "HgN/A
5:25 AM57 °FCool.6 mph94%29.89 "HgN/A
4:55 AM59 °FCool.5 mph94%29.89 "HgN/A
4:25 AM57 °FCool.5 mph100%29.89 "HgN/A
3:55 AM57 °FCool.2 mph100%29.89 "HgN/A
3:25 AM57 °FCool.3 mph100%29.89 "HgN/A
2:55 AM59 °FCool.3 mph94%29.89 "HgN/A
2:25 AM59 °FClear.2 mph100%29.89 "HgN/A
1:55 AM61 °FClear.1 mph88%29.89 "HgN/A
1:25 AM61 °FClear.5 mph94%29.89 "HgN/A
12:55 AM61 °FClear.5 mph94%29.92 "HgN/A
12:25 AM63 °FClear.5 mph88%29.92 "HgN/A
11:55 PM
Jul 29
63 °FMild.5 mph88%29.92 "HgN/A
11:25 PM64 °FPassing clouds.6 mph83%29.92 "HgN/A
10:55 PM64 °FMild.7 mph88%29.92 "HgN/A
10:25 PM64 °FClear.9 mph88%29.89 "HgN/A
Weather by CustomWeather, © 2014

See weather overviewHow to use our weather pages